星链-2703 (STARLINK-2703 )

导读

STARLINK-2703是美国SpaceX公司星链(Starlink)星座的组网卫星,于2021年5月9日发射入轨,属于星链项目的批量发射卫星之一。星链旨在搭建全球卫星互联网,提供低延迟、高速的网络服务,这颗卫星承担着扩充星座覆盖能力、推进全球网络覆盖布局的作用,是星链低轨卫星星座建设进程中的组成部分。

基本信息
目录编号:
48452
目录名称:
STARLINK-2703
国际标识:
2021-040AA
轨道中心:
EARTH
卫星名称:
星链-2703
卫星全名:
星链-2703 (STARLINK-2703 )
卫星状态:
在轨 (已飞行1945 天)
发射日期:
2021-05-09 UTC
国别 :
美国 (US)
星等 :
--
轨道信息
数据来源 国际轨道数据
星历时间: 2026-09-04T20:13:40+0800
1天前
查看轨道信息
半长轴: 6848.881km
偏心率: 0.0001073
轨道倾角: 53.161°
近地点辐角 73.439°
升交点赤经 65.966°
平近点角 286.673°
近地点: 470.009km
远地点: 471.479km
周期: 94.013分钟
每日圈数: 15.316988
详细信息
固有亮度:
5
最大亮度:
2.5
卫星平台:
Starlink V1.0
覆盖范围:
全球
运营商:
太空探索技术公司
运营商所在国:
美国
制造商(研发单位):
太空探索技术公司
制造商所在国:
美国
使用方式:
暂无
卫星简介
星链(Starlink)计划是由太空探索技术公司(SpaceX)提出的一个巨型低轨卫星互联网星座项目,计划在2019年至2024年间在太空搭建由约1.2万颗卫星组成的“星链”网络,其中1584颗将部署在地球上空550千米处的近地轨道,并从2020年开始工作。该卫星仍在工作。
2D轨道图
3D轨道图
轨道高度分析图
轨道倾角分析图
轨道综合分析图
查看轨道综合分析图
交会数据列表
事件ID 空间交会对象 最接近时刻(TCA) 交会距离 交会风险概率(CRP) 交会风险指数(CRI) 操作
CDM_260907-141704-780404-845221
2026-09-07T
14:17:31+0000
1.699 km
极远距离
2.3409E-6 低风险 0.42
CDM_260906-125904-845205-984821
2026-09-06T
12:59:11+0000
2.130 km
极远距离
1.701922E-6 低风险 0.4
CDM_260906-023404-845206-335922
2026-09-06T
02:34:49+0000
2.757 km
极远距离
1.495299E-6 低风险 0.38
CDM_260906-214104-845206-877721
2026-09-06T
21:41:32+0000
2.691 km
极远距离
1.473954E-6 低风险 0.38
CDM_260908-050504-845205-503421
2026-09-08T
05:05:59+0000
2.798 km
极远距离
1.287893E-6 低风险 0.37
CDM_260905-151304-845206-759421
2026-09-05T
15:13:04+0000
2.869 km
极远距离
1.281958E-6 低风险 0.37
CDM_260830-120504-845206-829521
2026-08-30T
12:05:05+0000
2.742 km
极远距离
1.239808E-6 低风险 0.37